User: anonymous   Login
Location: ??????
(42.0089°N, 44.3281°E)
Time: 00:05:47
(UTC+00:00)
Language:

SKYMED 2 - Orbit

View from above orbital plane
View from above orbital plane
View from above satellite
View from above satellite

Ground track
Ground track

The orbit data is extracted from the following two-line orbital elements,

1 32376U 07059A   22020.58751573 -.00000030  00000-0  28165-5 0  9990
2 32376  97.8808 206.3891 0001535  94.8724 265.2666 14.82154117763801
Epoch (UTC): 20 January 2022 14:06:01
Eccentricity: 0.0001535
inclination: 97.8808°
perigee height: 621 km
apogee height: 623 km
right ascension of ascending node: 206.3891°
argument of perigee: 94.8724°
revolutions per day: 14.82154117
mean anomaly at epoch: 265.2666°
orbit number at epoch: 76380

The dashed part of the orbit path shows where the satellite is in the earth's shadow,  

DLR